Location: Hiram
(41.3130°N, 81.1440°W)
Time: 06:17:40
(UTC-04:00)

Amateur Radio Satellites - All Passes

Search period start: 29 May 2015 05:47
Search period end: 30 May 2015 05:47
Location: Hiram, 41.3130°N, 81.1440°W

Satellite Date Start Highest point End Downlink Frequencies (MHz)
Time Altitude Azimuth
STRAND 1 29 May 05:57:35 05:58:47 11° 59° (ENE) 06:00:16 437.568
AO-7 29 May 05:59:47 06:08:11 83° 289° (WNW) 06:16:34 29.400- 29.500
PHONESAT 2.4 29 May 06:06:54 06:10:22 70° 188° (S) 06:13:49 2401.200-2431.200
Cubesat XI-IV 29 May 06:25:15 06:27:26 13° 87° (E) 06:29:58 437.490
VERMONT LUNAR 29 May 06:48:27 06:50:48 19° 207° (SSW) 06:53:07 437.305
Cosmos 2491 29 May 06:49:35 06:58:19 61° 77° (ENE) 07:07:00 435.465 / 435.565
CUBESAT XI-V 29 May 06:54:33 06:59:09 82° 76° (ENE) 07:03:48 437.345
JAS-2 29 May 06:55:45 06:58:55 16° 297° (WNW) 07:01:54 435.910
ISS 29 May 07:06:06 07:08:17 16° 227° (SW) 07:10:23 145.825
PRISM 29 May 07:16:53 07:20:56 66° 74° (ENE) 07:25:00 437.425
RS-15 29 May 07:26:12 07:31:47 17° 100° (E) 07:38:15 29.354- 29.394
M-CUBED/EXP-1 PRIME 29 May 07:28:27 07:32:31 56° 70° (ENE) 07:36:16 437.505
STRAND 1 29 May 07:32:10 07:37:16 83° 76° (ENE) 07:42:24 437.568
AUBIESAT-1 29 May 07:34:20 07:38:21 57° 70° (ENE) 07:42:05 437.475
YUBILEINY 29 May 07:39:47 07:48:11 55° 91° (E) 07:56:38 435.215
CUTE-I 29 May 07:41:32 07:46:53 67° 102° (ESE) 07:52:14 437.470
PHONESAT 2.4 29 May 07:45:14 07:48:13 27° 204° (SSW) 07:51:10 2401.200-2431.200
AIST 1 29 May 07:48:24 07:52:32 39° 77° (ENE) 07:56:40
AO-7 29 May 07:54:11 07:59:55 20° 308° (NW) 08:05:23 29.400- 29.500
Cubesat XI-IV 29 May 08:02:53 08:08:16 79° 286° (WNW) 08:13:39 437.490
Cosmos 2491 29 May 08:47:22 08:54:40 29° 276° (W) 09:01:40 435.465 / 435.565
GOMX 1 29 May 08:50:04 08:53:55 21° 89° (E) 08:57:47 467.674
BRITE-PL 29 May 08:59:10 09:04:27 41° 95° (E) 09:09:29 437.365/2234.400
M-CUBED/EXP-1 PRIME 29 May 09:06:04 09:07:38 12° 264° (W) 09:08:56 437.505
CANX-2 29 May 09:11:03 09:13:57 18° 92° (E) 09:16:57 2200.000
AUBIESAT-1 29 May 09:12:01 09:13:24 11° 264° (W) 09:14:32 437.475
CUTE 1.7 + AOD 2 29 May 09:14:16 09:17:05 18° 91° (E) 09:20:03 437.475
STRAND 1 29 May 09:15:42 09:17:15 11° 273° (W) 09:18:27 437.568
Cosmos 2504 29 May 09:17:14 09:22:57 22° 84° (E) 09:28:45 435.465 / 435.565
CUTE-I 29 May 09:22:59 09:26:29 17° 298° (WNW) 09:29:46 437.470
AIST 1 29 May 09:26:57 09:29:55 17° 272° (W) 09:32:43
RS-15 29 May 09:31:39 09:42:28 77° 119° (ESE) 09:53:39 29.354- 29.394
SEEDS 29 May 09:32:33 09:35:53 23° 93° (E) 09:39:17 437.485
YUBILEINY 29 May 09:37:40 09:45:27 33° 291° (WNW) 09:53:04 435.215
DOVE 4 29 May 09:38:13 09:42:55 38° 95° (E) 09:47:23 437.250
ANTELSAT 29 May 09:40:54 09:41:30 10° 62° (ENE) 09:42:21 437.575/2403.000
COMPASS 1 29 May 09:41:45 09:45:04 23° 94° (E) 09:48:28 437.405
HO-68 29 May 09:41:50 09:48:38 45° 99° (E) 09:55:26 435.675
PCSat 29 May 09:45:05 09:50:15 44° 54° (NE) 09:55:26 145.827
Cubesat XI-IV 29 May 09:45:55 09:47:36 11° 302° (WNW) 09:49:00 437.490
AAUSAT CUBESAT 2 29 May 09:51:38 09:55:04 26° 94° (E) 09:58:35 437.432
DELFI C3 29 May 10:04:09 10:05:01 11° 88° (E) 10:06:07 145.870
TIGRISAT 29 May 10:09:32 10:12:51 20° 67° (ENE) 10:16:17 435.000
UWE-3 29 May 10:16:06 10:18:46 16° 90° (E) 10:21:34 435.000/436.395/437.385
FUNcube-1 29 May 10:19:50 10:21:49 13° 89° (E) 10:24:00 145.935
GOMX 1 29 May 10:27:14 10:32:23 48° 288° (WNW) 10:37:13 467.674
UNISAT 6 29 May 10:30:11 10:34:19 33° 70° (ENE) 10:38:28 437.425
NANOSAT C BR1 29 May 10:33:22 10:35:46 15° 65° (ENE) 10:38:21 145.865
CINEMA 3 29 May 10:34:51 10:39:33 70° 101° (E) 10:44:00 145.822/145.860
BRITE-PL 29 May 10:37:59 10:42:45 28° 293° (WNW) 10:47:14 437.365/2234.400
SO-50 29 May 10:42:04 10:45:26 18° 39° (NE) 10:48:53 436.795
QB50P2 29 May 10:42:36 10:45:39 20° 67° (ENE) 10:48:49 145.880/145.840
CANX-2 29 May 10:46:09 10:50:02 36° 288° (WNW) 10:53:53 2200.000
CUTE 1.7 + AOD 2 29 May 10:49:17 10:53:12 37° 288° (WNW) 10:57:03 437.475
DUCHIFAT 1 29 May 10:53:37 10:57:01 24° 68° (ENE) 11:00:30 145.980
POPSAT HIP 1 29 May 10:53:45 10:57:13 25° 69° (ENE) 11:00:46 437.405
UKube-1 29 May 10:57:29 11:00:01 15° 91° (E) 11:02:42 .
ZACube-1 29 May 10:59:56 11:03:57 38° 97° (E) 11:07:54 437.345
BUGSAT 1 29 May 11:05:16 11:08:28 22° 68° (ENE) 11:11:47 437.445
Oscar 11 29 May 11:06:17 11:10:37 84° 100° (E) 11:14:55 145.826/435.025
Cosmos 2504 29 May 11:07:29 11:15:46 71° 280° (W) 11:23:29 435.465 / 435.565
SEEDS 29 May 11:08:05 11:11:42 28° 290° (WNW) 11:15:15 437.485
DX 1 29 May 11:09:20 11:12:48 23° 94° (E) 11:16:19 434.975-435.025
CUBEBUG 2 29 May 11:09:21 11:13:48 82° 102° (ESE) 11:18:04 437.445
ANTELSAT 29 May 11:12:58 11:17:40 90° 304° (NW) 11:22:20 437.575/2403.000
DOVE 4 29 May 11:16:19 11:20:28 25° 294° (WNW) 11:24:19 437.250
COMPASS 1 29 May 11:17:11 11:20:45 28° 290° (WNW) 11:24:16 437.405
AAUSAT CUBESAT 2 29 May 11:27:12 11:30:38 25° 291° (WNW) 11:33:59 437.432
PCSat 29 May 11:28:57 11:33:29 27° 251° (WSW) 11:37:53 145.827
HO-68 29 May 11:29:50 11:36:16 36° 296° (WNW) 11:42:32 435.675
VELOX 1 29 May 11:33:32 11:36:55 21° 93° (E) 11:40:23 145.980
QB50P1 29 May 11:36:34 11:40:50 74° 74° (ENE) 11:45:08 145.935-145.965
DELFI C3 29 May 11:36:37 11:40:35 57° 285° (WNW) 11:44:29 145.870
POLYITAN 1 29 May 11:39:59 11:44:17 82° 78° (ENE) 11:48:38 437.675
TIGRISAT 29 May 11:44:52 11:49:21 43° 262° (W) 11:53:46 435.000
RS-15 29 May 11:46:09 11:56:06 37° 325° (NW) 12:06:14 29.354- 29.394
ESTCUBE 1 29 May 11:46:46 11:49:49 18° 91° (E) 11:53:01 437.505/2401.250
CUSAT 1 29 May 11:47:13 11:51:16 16° 80° (E) 11:56:00 437.405
UWE-3 29 May 11:51:27 11:55:36 42° 288° (WNW) 11:59:36 435.000/436.395/437.385
FUNcube-1 29 May 11:54:23 11:58:34 51° 287° (WNW) 12:02:38 145.935
AISAT 29 May 12:05:25 12:09:48 48° 99° (E) 12:14:08 437.250
NANOSAT C BR1 29 May 12:07:05 12:11:14 50° 261° (W) 12:15:26 145.865
UNISAT 6 29 May 12:07:13 12:11:08 25° 266° (W) 12:14:57 437.425
HUMSAT D 29 May 12:08:39 12:12:48 76° 284° (WNW) 12:16:53 437.325/437.525
GONETS M04 29 May 12:12:17 12:17:46 19° 80° (E) 12:23:43
CINEMA 3 29 May 12:13:57 12:16:09 13° 298° (WNW) 12:18:07 145.822/145.860
QB50P2 29 May 12:17:19 12:21:19 37° 263° (W) 12:25:20 145.880/145.840
SO-50 29 May 12:21:38 12:26:37 80° 239° (WSW) 12:31:30 436.795
50 SAT 29 May 12:28:28 12:32:21 78° 284° (WNW) 12:36:11 437.505
DUCHIFAT 1 29 May 12:28:56 12:32:43 29° 265° (W) 12:36:28 145.980
POPSAT HIP 1 29 May 12:29:13 12:33:00 29° 265° (W) 12:36:44 437.405
UKube-1 29 May 12:32:15 12:36:27 47° 288° (WNW) 12:40:36 .
ZACube-1 29 May 12:37:01 12:40:04 19° 294° (WNW) 12:42:57 437.345
BUGSAT 1 29 May 12:40:02 12:43:47 31° 264° (W) 12:47:33 437.445
DX 1 29 May 12:45:09 12:49:06 32° 290° (WNW) 12:52:59 434.975-435.025
CUBEBUG 2 29 May 12:49:19 12:49:51 10° 298° (WNW) 12:50:08 437.445
Oscar 19 29 May 12:52:50 12:56:30 20° 64° (ENE) 13:00:19 437.125/150
CUBEBUG 1 29 May 12:59:40 13:04:09 85° 284° (WNW) 13:08:35 437.445
Cosmos 2504 29 May 13:07:03 13:10:44 13° 302° (WNW) 13:13:48 435.465 / 435.565
VELOX 1 29 May 13:09:28 13:13:36 36° 290° (WNW) 13:17:39 145.980
DANDE 29 May 13:12:21 13:19:24 52° 91° (E) 13:27:36 436.750
ESTCUBE 1 29 May 13:22:38 13:26:56 43° 288° (WNW) 13:31:13 437.505/2401.250
CUSAT 1 29 May 13:25:12 13:32:44 78° 97° (E) 13:41:07 437.405
SPROUT 29 May 13:28:18 13:32:34 54° 100° (E) 13:36:47 437.525
TISAT 1 29 May 13:41:09 13:45:21 54° 100° (E) 13:49:31 437.305
AISAT 29 May 13:43:03 13:46:02 17° 295° (WNW) 13:48:51 437.250
Cosmos 2499 29 May 13:44:35 13:44:46 10° 78° (ENE) 13:45:38 435.465 / 435.565
GONETS M04 29 May 14:04:44 14:13:37 86° 279° (W) 14:22:31
RS-15 29 May 14:05:05 14:13:04 21° 359° (N) 14:21:16 29.354- 29.394
Gurwin Techsat 1B 29 May 14:05:27 14:09:47 27° 67° (ENE) 14:14:14 435.225
ITUPSAT 1 29 May 14:13:45 14:17:08 19° 92° (E) 14:20:39 437.325
BEESAT 29 May 14:19:27 14:23:08 23° 93° (E) 14:26:56 436.000
SWISSCUBE 29 May 14:28:03 14:32:13 30° 95° (E) 14:36:27 437.505
Oscar 19 29 May 14:30:26 14:35:31 52° 260° (W) 14:40:36 437.125/150
ITAMSAT 1 29 May 14:50:22 14:55:30 73° 74° (ENE) 15:00:42 435.822/435.867
DANDE 29 May 14:55:59 15:02:59 37° 293° (WNW) 15:10:41 436.750
SPROUT 29 May 15:05:49 15:08:14 14° 295° (WNW) 15:10:30 437.525
AO-7 29 May 15:07:41 15:14:32 31° 58° (ENE) 15:21:37 29.400- 29.500
HORYU 2 29 May 15:08:34 15:11:18 17° 65° (ENE) 15:14:10 437.375
CUSAT 1 29 May 15:10:06 15:16:26 25° 298° (WNW) 15:22:52 437.405
O/OREOS (USA 219) 29 May 15:14:43 15:18:33 28° 104° (ESE) 15:22:27 437.305
KKS-1 29 May 15:16:43 15:19:13 15° 90° (E) 15:21:53 437.445
TISAT 1 29 May 15:18:21 15:20:43 14° 295° (WNW) 15:22:54 437.305
JAS-2 29 May 15:21:30 15:26:52 30° 68° (ENE) 15:31:51 435.910
Cosmos 2499 29 May 15:28:52 15:36:51 67° 95° (E) 15:44:17 435.465 / 435.565
Gurwin Techsat 1B 29 May 15:44:39 15:49:37 39° 263° (W) 15:54:35 435.225
ITUPSAT 1 29 May 15:50:43 15:55:17 44° 289° (WNW) 15:59:49 437.325
BEESAT 29 May 15:56:42 16:01:08 38° 290° (WNW) 16:05:31 436.000
SWISSCUBE 29 May 16:05:54 16:10:03 29° 292° (WNW) 16:14:07 437.505
GONETS M04 29 May 16:06:07 16:12:04 18° 301° (WNW) 16:17:34
STARS 29 May 16:12:51 16:16:57 37° 97° (E) 16:21:02 437.465
RS-15 29 May 16:20:17 16:30:18 34° 32° (NNE) 16:40:55 29.354- 29.394
ITAMSAT 1 29 May 16:33:05 16:35:40 13° 272° (W) 16:37:58 435.822/435.867
HORYU 2 29 May 16:43:13 16:47:35 50° 261° (W) 16:51:57 437.375
KKS-1 29 May 16:51:52 16:56:13 50° 287° (WNW) 17:00:31 437.445
O/OREOS (USA 219) 29 May 16:54:01 16:57:57 28° 302° (WNW) 17:01:49 437.305
AO-7 29 May 16:58:41 17:06:53 64° 257° (WSW) 17:15:09 29.400- 29.500
MOZHAYETS 4 29 May 17:05:22 17:08:32 19° 91° (E) 17:11:50
JAS-2 29 May 17:05:37 17:11:53 44° 261° (W) 17:17:27 435.910
Cosmos 2499 29 May 17:24:24 17:30:39 24° 293° (WNW) 17:36:20 435.465 / 435.565
CUTE-I 29 May 17:26:31 17:29:20 15° 61° (ENE) 17:32:24 437.470
BEESAT 3 29 May 17:37:10 17:40:54 36° 116° (ESE) 17:44:43 437.485
Cubesat XI-IV 29 May 17:46:37 17:50:38 23° 65° (ENE) 17:54:47 437.490
STARS 29 May 17:49:49 17:53:12 21° 293° (WNW) 17:56:26 437.465
YUBILEINY 29 May 17:50:19 17:57:14 27° 65° (ENE) 18:04:24 435.215
Cosmos 2491 29 May 18:00:38 18:03:27 12° 76° (ENE) 18:06:59 435.465 / 435.565
BEESAT 2 29 May 18:29:31 18:33:37 75° 303° (WNW) 18:37:47 435.950
RS-15 29 May 18:32:45 18:44:27 89° 237° (WSW) 18:56:38 29.354- 29.394
AIST 2 29 May 18:38:18 18:42:14 38° 116° (ESE) 18:46:14 435.215
MOZHAYETS 4 29 May 18:41:40 18:45:59 42° 288° (WNW) 18:50:17
CUBESAT XI-V 29 May 18:51:57 18:55:27 21° 92° (E) 18:59:03 437.345
AO-7 29 May 19:00:28 19:01:37 10° 277° (W) 19:01:56 29.400- 29.500
CUTE-I 29 May 19:03:32 19:08:50 76° 256° (WSW) 19:14:12 437.470
BEESAT 3 29 May 19:15:39 19:19:00 23° 314° (NW) 19:22:19 437.485
Cubesat XI-IV 29 May 19:25:20 19:30:27 48° 261° (W) 19:35:36 437.490
STRAND 1 29 May 19:43:08 19:47:29 28° 94° (E) 19:51:55 437.568
YUBILEINY 29 May 19:46:17 19:54:55 68° 267° (W) 20:03:29 435.215
Cosmos 2491 29 May 19:50:10 19:58:52 71° 94° (E) 20:07:41 435.465 / 435.565
GOMX 1 29 May 19:57:40 20:01:45 24° 66° (ENE) 20:06:05 467.674
CANX-2 29 May 20:04:58 20:07:14 15° 66° (ENE) 20:09:40 2200.000
CUTE 1.7 + AOD 2 29 May 20:08:08 20:10:19 14° 65° (ENE) 20:12:41 437.475
BRITE-PL 29 May 20:09:19 20:14:14 45° 71° (ENE) 20:19:32 437.365/2234.400
HO-68 29 May 20:10:42 20:16:58 35° 63° (ENE) 20:23:21 435.675
BEESAT 2 29 May 20:11:13 20:12:30 11° 324° (NW) 20:13:38 435.950
AIST 2 29 May 20:17:24 20:20:57 24° 314° (NW) 20:24:27 435.215
AIST 1 29 May 20:18:34 20:21:52 23° 89° (E) 20:25:17
SEEDS 29 May 20:25:20 20:28:06 18° 67° (ENE) 20:31:00 437.485
CUBESAT XI-V 29 May 20:28:40 20:33:04 40° 288° (WNW) 20:37:26 437.345
COMPASS 1 29 May 20:33:44 20:36:27 18° 67° (ENE) 20:39:18 437.405
PRISM 29 May 20:34:19 20:38:29 74° 285° (WNW) 20:42:38 437.425
DOVE 4 29 May 20:42:58 20:47:47 40° 71° (ENE) 20:52:46 437.250
AAUSAT CUBESAT 2 29 May 20:43:04 20:45:56 19° 68° (ENE) 20:48:56 437.432
M-CUBED/EXP-1 PRIME 29 May 20:44:20 20:47:24 36° 104° (ESE) 20:50:33 437.505
RS-15 29 May 20:46:58 20:55:43 24° 257° (WSW) 21:04:00 29.354- 29.394
AUBIESAT-1 29 May 20:49:34 20:52:38 36° 103° (ESE) 20:55:47 437.475
Cosmos 2504 29 May 21:00:04 21:06:41 39° 73° (ENE) 21:13:23 435.465 / 435.565
UWE-3 29 May 21:13:26 21:16:15 16° 65° (ENE) 21:19:13 435.000/436.395/437.385
FUNcube-1 29 May 21:16:05 21:18:06 13° 64° (ENE) 21:20:20 145.935
STRAND 1 29 May 21:22:04 21:26:46 35° 291° (WNW) 21:31:23 437.568
GOMX 1 29 May 21:34:31 21:39:32 47° 263° (W) 21:44:48 467.674
CINEMA 3 29 May 21:35:39 21:40:37 65° 75° (ENE) 21:45:37 145.822/145.860
CANX-2 29 May 21:38:38 21:42:48 51° 261° (W) 21:46:57 2200.000
CUTE 1.7 + AOD 2 29 May 21:41:41 21:45:52 53° 261° (W) 21:50:02 437.475
YUBILEINY 29 May 21:47:28 21:50:16 11° 285° (WNW) 21:52:19 435.215
BRITE-PL 29 May 21:48:47 21:53:01 24° 270° (W) 21:57:20 437.365/2234.400
Cosmos 2491 29 May 21:49:29 21:56:41 26° 296° (WNW) 22:03:38 435.465 / 435.565
UKube-1 29 May 21:53:02 21:55:19 15° 64° (ENE) 21:57:47 .
ZACube-1 29 May 21:55:38 21:59:44 33° 70° (ENE) 22:03:50 437.345
AIST 1 29 May 21:55:43 21:59:25 28° 286° (WNW) 22:03:07
HO-68 29 May 21:57:39 22:04:33 47° 261° (W) 22:11:25 435.675
SEEDS 29 May 21:59:39 22:03:38 40° 262° (W) 22:07:37 437.485
Oscar 11 29 May 22:00:49 22:05:06 64° 75° (ENE) 22:09:24 145.826/435.025
DX 1 29 May 22:05:20 22:08:33 21° 67° (ENE) 22:11:53 434.975-435.025
CUBEBUG 2 29 May 22:06:49 22:11:34 69° 75° (ENE) 22:16:17 437.445
COMPASS 1 29 May 22:07:55 22:11:52 40° 262° (W) 22:15:48 437.405
ISS 29 May 22:09:10 22:11:10 16° 132° (SE) 22:13:16 145.825
AAUSAT CUBESAT 2 29 May 22:17:29 22:21:20 36° 263° (W) 22:25:11 437.432
M-CUBED/EXP-1 PRIME 29 May 22:20:34 22:22:03 12° 298° (WNW) 22:23:24 437.505
DOVE 4 29 May 22:21:19 22:25:40 26° 268° (W) 22:30:00 437.250
DELFI C3 29 May 22:23:36 22:27:37 84° 78° (ENE) 22:31:39 145.870
AUBIESAT-1 29 May 22:25:43 22:27:13 12° 298° (WNW) 22:28:35 437.475
VELOX 1 29 May 22:31:33 22:34:45 20° 66° (ENE) 22:38:04 145.980
ESTCUBE 1 29 May 22:46:58 22:49:53 18° 65° (ENE) 22:52:56 437.505/2401.250
UWE-3 29 May 22:47:47 22:52:23 55° 260° (W) 22:56:58 435.000/436.395/437.385
FUNcube-1 29 May 22:49:22 22:53:57 68° 259° (W) 22:58:30 145.935
Cosmos 2504 29 May 22:53:34 23:00:01 36° 272° (W) 23:06:23 435.465 / 435.565
HUMSAT D 29 May 22:59:55 23:04:13 75° 77° (ENE) 23:08:32 437.325/437.525
AISAT 29 May 23:03:09 23:07:21 44° 72° (ENE) 23:11:38 437.250
ANTELSAT 29 May 23:06:15 23:09:09 18° 91° (E) 23:12:09 437.575/2403.000
50 SAT 29 May 23:12:46 23:16:40 57° 75° (ENE) 23:20:35 437.505
CINEMA 3 29 May 23:15:24 23:18:19 15° 272° (W) 23:20:59 145.822/145.860
QB50P1 29 May 23:23:49 23:25:22 12° 88° (E) 23:27:09 145.935-145.965
UKube-1 29 May 23:26:48 23:31:03 55° 260° (W) 23:35:19 .
POLYITAN 1 29 May 23:27:11 23:29:13 13° 89° (E) 23:31:26 437.675
ZACube-1 29 May 23:32:21 23:36:08 24° 267° (W) 23:39:48 437.345
TIGRISAT 29 May 23:36:45 23:40:47 37° 97° (E) 23:44:46 435.000
Oscar 11 29 May 23:40:24 23:41:48 11° 272° (W) 23:42:55 145.826/435.025
DX 1 29 May 23:40:34 23:44:36 36° 263° (W) 23:48:39 434.975-435.025
ISS 29 May 23:44:06 23:47:18 58° 327° (NNW) 23:50:31 145.825
CUBEBUG 2 29 May 23:46:38 23:48:47 12° 272° (W) 23:50:41 437.445
NANOSAT C BR1 29 May 23:52:22 23:55:53 25° 94° (E) 23:59:27 145.865
CUBEBUG 1 29 May 23:55:34 23:59:56 79° 76° (ENE) 00:04:21 437.445
DANDE 29 May 23:55:50 00:02:57 41° 68° (ENE) 00:08:39 436.750
UNISAT 6 29 May 23:58:24 00:02:45 68° 101° (E) 00:07:01 437.425
QB50P2 30 May 00:02:32 00:06:25 33° 97° (E) 00:10:18 145.880/145.840
CUSAT 1 30 May 00:05:59 00:12:53 59° 74° (ENE) 00:18:08 437.405
VELOX 1 30 May 00:06:54 00:11:04 39° 263° (W) 00:15:15 145.980
DUCHIFAT 1 30 May 00:13:09 00:17:12 42° 98° (E) 00:21:14 145.980
POPSAT HIP 1 30 May 00:13:51 00:17:57 44° 98° (E) 00:22:01 437.405
GONETS M04 30 May 00:15:18 00:23:43 49° 74° (ENE) 00:32:06
BUGSAT 1 30 May 00:21:53 00:25:49 36° 97° (E) 00:29:45 437.445
ESTCUBE 1 30 May 00:22:07 00:26:26 46° 261° (W) 00:30:46 437.505/2401.250
SPROUT 30 May 00:22:23 00:26:27 42° 72° (ENE) 00:30:34 437.525
PCSat 30 May 00:26:54 00:31:50 39° 112° (ESE) 00:36:53 145.827
TISAT 1 30 May 00:33:14 00:37:12 40° 72° (ENE) 00:41:14 437.305
AISAT 30 May 00:41:09 00:44:12 17° 269° (W) 00:47:07 437.250
ANTELSAT 30 May 00:42:05 00:46:10 39° 288° (WNW) 00:50:09 437.575/2403.000
50 SAT 30 May 00:50:46 00:51:48 11° 271° (W) 00:52:35 437.505
QB50P1 30 May 00:57:28 01:01:42 58° 286° (WNW) 01:05:51 145.935-145.965
POLYITAN 1 30 May 01:01:20 01:05:30 51° 287° (WNW) 01:09:38 437.675
VERMONT LUNAR 30 May 01:01:33 01:04:13 24° 155° (SSE) 01:06:53 437.305
TIGRISAT 30 May 01:14:06 01:17:18 20° 294° (WNW) 01:20:21 435.000
ITUPSAT 1 30 May 01:20:45 01:24:26 23° 67° (ENE) 01:28:14 437.325
Cosmos 2499 30 May 01:20:49 01:25:45 20° 65° (ENE) 01:30:59 435.465 / 435.565
ISS 30 May 01:22:02 01:24:15 17° 347° (NNW) 01:26:27 145.825
O/OREOS (USA 219) 30 May 01:23:57 01:28:21 55° 65° (ENE) 01:32:45 437.305
BEESAT 30 May 01:26:04 01:29:59 27° 68° (ENE) 01:33:59 436.000
NANOSAT C BR1 30 May 01:28:02 01:31:43 28° 291° (WNW) 01:35:18 145.865
SWISSCUBE 30 May 01:34:42 01:38:58 35° 69° (ENE) 01:43:17 437.505
UNISAT 6 30 May 01:37:20 01:39:01 12° 297° (WNW) 01:40:27 437.425
QB50P2 30 May 01:38:51 01:42:08 21° 293° (WNW) 01:45:19 145.880/145.840
DANDE 30 May 01:39:24 01:46:03 35° 273° (W) 01:51:17 436.750
DUCHIFAT 1 30 May 01:49:49 01:52:44 18° 294° (WNW) 01:55:29 145.980
CUSAT 1 30 May 01:49:57 01:54:42 20° 279° (W) 01:58:31 437.405
POPSAT HIP 1 30 May 01:50:41 01:53:31 17° 294° (WNW) 01:56:11 437.405
BEESAT 3 30 May 01:55:51 01:59:15 25° 47° (NE) 02:02:39 437.485
BUGSAT 1 30 May 01:57:54 02:01:05 20° 293° (WNW) 02:04:08 437.445
SPROUT 30 May 01:59:50 02:02:46 17° 269° (W) 02:05:34 437.525
PHONESAT 2.4 30 May 02:09:14 02:12:03 23° 154° (SSE) 02:14:55 2401.200-2431.200
TISAT 1 30 May 02:10:17 02:13:12 17° 269° (W) 02:15:58 437.305
PCSat 30 May 02:10:29 02:15:21 32° 310° (NW) 02:20:11 145.827
GONETS M04 30 May 02:12:32 02:20:24 37° 273° (W) 02:28:01
KKS-1 30 May 02:15:25 02:17:54 15° 64° (ENE) 02:20:35 437.445
SO-50 30 May 02:36:15 02:40:25 34° 115° (ESE) 02:44:47 436.795
VERMONT LUNAR 30 May 02:37:55 02:41:07 66° 171° (S) 02:44:19 437.305
Oscar 19 30 May 02:41:53 02:46:56 55° 100° (E) 02:51:58 437.125/150
BEESAT 2 30 May 02:48:45 02:52:50 66° 55° (NE) 02:56:52 435.950
ITUPSAT 1 30 May 02:57:43 03:02:09 38° 262° (W) 03:06:34 437.325
ISS 30 May 02:59:46 03:01:38 14° 7° (N) 03:03:31 145.825
AIST 2 30 May 03:00:03 03:03:41 27° 47° (NE) 03:07:18 435.215
BEESAT 30 May 03:03:26 03:07:43 33° 264° (W) 03:11:59 436.000
ITAMSAT 1 30 May 03:03:44 03:08:00 26° 94° (E) 03:12:22 435.822/435.867
O/OREOS (USA 219) 30 May 03:05:01 03:07:21 14° 260° (W) 03:09:28 437.305
STARS 30 May 03:09:45 03:13:44 33° 70° (ENE) 03:17:46 437.465
Cosmos 2499 30 May 03:12:39 03:19:40 69° 266° (W) 03:26:49 435.465 / 435.565
SWISSCUBE 30 May 03:13:00 03:16:54 24° 266° (W) 03:20:44 437.505
BEESAT 3 30 May 03:33:37 03:37:17 32° 245° (WSW) 03:40:52 437.485
PHONESAT 2.4 30 May 03:46:24 03:49:52 65° 170° (S) 03:53:19 2401.200-2431.200
KKS-1 30 May 03:49:43 03:54:08 56° 260° (W) 03:58:35 437.445
Gurwin Techsat 1B 30 May 04:00:18 04:05:39 83° 103° (ESE) 04:10:59 435.225
MOZHAYETS 4 30 May 04:07:47 04:10:53 19° 66° (ENE) 04:14:08
JAS-2 30 May 04:14:59 04:18:44 20° 92° (E) 04:22:47 435.910
VERMONT LUNAR 30 May 04:15:03 04:18:15 71° 187° (S) 04:21:26 437.305
SO-50 30 May 04:16:43 04:20:59 32° 313° (NW) 04:25:20 436.795
Oscar 19 30 May 04:22:16 04:25:55 19° 296° (WNW) 04:29:24 437.125/150
BEESAT 2 30 May 04:29:06 04:30:26 11° 251° (WSW) 04:31:32 435.950
HORYU 2 30 May 04:34:38 04:38:30 29° 96° (E) 04:42:24 437.375
ISS 30 May 04:35:47 04:38:47 33° 26° (NNE) 04:41:48 145.825
AIST 2 30 May 04:38:32 04:42:17 31° 245° (WSW) 04:45:55 435.215
ITAMSAT 1 30 May 04:42:47 04:47:39 39° 291° (WNW) 04:52:27 435.822/435.867
STARS 30 May 04:46:42 04:50:16 23° 267° (W) 04:53:44 437.465
AO-7 30 May 05:00:10 05:08:05 45° 99° (E) 05:16:02 29.400- 29.500
PHONESAT 2.4 30 May 05:24:27 05:27:55 75° 188° (S) 05:31:23 2401.200-2431.200
Gurwin Techsat 1B 30 May 05:42:16 05:45:00 14° 299° (WNW) 05:47:29 435.225
